{"data":{"norad_id":64814,"epoch":"2026-05-25T03:51:30.934080Z","epoch_age_seconds":64365,"freshness":"FRESH","line1":"1 64814U 25150AA  26145.16077470  .00002192  00000+0  19139-3 0  9995","line2":"2 64814  70.0006 301.5478 0002832 264.4503  95.6333 14.98335136 47974","mean_motion":14.98335136,"eccentricity":0.0002832,"inclination_deg":70.0006,"raan_deg":301.5478,"arg_perigee_deg":264.4503,"mean_anomaly_deg":95.6333,"bstar":0.00019139,"rev_number":4797,"period_min":96.106669689684,"perigee_km":570.07171820469,"apogee_km":574.00829846221,"semimajor_km":6950.1770083335,"source":"CELESTRAK","updated_at":"2026-05-25T13:38:20.570370Z"}}